DateTimeUTC,F1_A11,F1_S11,BsB_S11,BsG_S11,BsR_S11,BbsB_S11,BbsG_S11,BbsR_S11,BaB_A11,BaG_A11,BaR_A11,Tu_S11,T_S11,Uu_S11,U_S11,P_S11,T1_A11
2021-02-12T09:00:00Z,00000200,21000000,,,,,,,0000.36,-000.28,-000.10,15.9,22.9,,00.0,0653.7,30.9
2021-02-12T09:01:00Z,00000200,21000000,,,,,,,-000.50,-000.08,-000.34,15.8,22.9,,00.0,0653.7,30.9
2021-02-12T09:02:00Z,00000200,21000000,,,,,,,0000.22,0000.11,0000.06,15.8,22.9,,00.0,0653.7,30.9
2021-02-12T09:03:00Z,00000200,61000000,,,,,,,0000.24,-000.07,0000.28,15.8,22.9,,00.0,0653.7,30.9
2021-02-12T09:04:00Z,00000200,41000000,-000.00,0000.54,0000.31,0000.04,0000.08,0000.22,-000.25,-000.05,-000.35,15.8,22.6,,00.0,0654.6,30.9
2021-02-12T09:05:00Z,00000200,01000000,0000.17,0000.17,0000.01,0000.06,-000.26,-000.28,0000.07,-000.05,0000.30,15.9,22.5,,00.0,0654.6,30.9
2021-02-12T09:06:00Z,00000200,01000000,-000.23,0000.55,-000.38,0000.26,0000.05,-000.13,0000.41,0000.29,0000.33,15.9,22.4,,00.0,0654.6,30.9
2021-02-12T09:07:00Z,00000200,01000000,0000.69,0000.11,0000.03,-000.03,0000.05,-000.08,0000.26,0000.46,0000.36,15.9,22.4,,00.0,0654.6,30.9
2021-02-12T09:08:00Z,00000200,01000000,0000.28,0000.57,0000.16,0000.61,0000.14,-000.10,0000.46,-000.06,0000.01,16.0,22.4,,00.0,0654.6,30.9
2021-02-12T09:09:00Z,00000200,01000000,0000.31,0000.25,-000.02,-000.16,0000.36,0000.08,-000.29,0000.38,0000.15,16.0,22.5,,00.0,0654.6,30.9
2021-02-12T09:10:00Z,00000200,01000000,0000.50,0000.24,0000.01,0000.01,-000.05,-000.02,0000.49,0000.30,-000.03,16.1,22.5,,00.0,0654.6,30.9
2021-02-12T09:11:00Z,00000200,01000000,-000.19,0000.29,-000.11,-000.11,0000.11,-000.07,-000.40,-000.53,0000.07,16.1,22.5,,00.0,0654.7,30.9
2021-02-12T09:12:00Z,00000200,01000000,-000.02,0000.11,-000.20,-000.51,0000.10,0000.33,0000.03,-000.11,-000.30,16.1,22.5,,00.0,0654.7,30.9
2021-02-12T09:13:00Z,00000200,01000000,-000.74,-000.16,0000.41,0000.21,-000.05,0000.37,-000.18,0000.42,0000.01,16.1,22.5,,00.0,0654.7,30.9
2021-02-12T09:14:00Z,00000200,01000000,0000.35,0000.17,-000.11,0000.16,-000.18,-000.10,0000.13,-000.18,-000.06,16.1,22.4,,00.0,0654.8,30.9
2021-02-12T09:15:00Z,00000200,01000000,-000.07,-000.09,-000.01,-000.00,-000.02,-000.03,-000.12,-000.13,0000.14,16.0,22.4,,00.0,0654.7,30.9
2021-02-12T09:16:00Z,00000200,01000000,0000.16,0000.36,0000.25,-000.43,-000.06,0000.32,0000.25,0000.04,-000.12,16.0,22.3,,00.0,0654.7,30.9
2021-02-12T09:17:00Z,00000200,01000000,-000.95,0000.07,-000.07,-000.29,0000.04,-000.02,0000.06,-000.02,-000.05,15.9,22.3,,00.0,0654.7,30.9
2021-02-12T09:18:00Z,00000200,01000000,0000.58,0000.15,-000.01,-000.36,-000.12,0000.35,-000.07,0000.40,0000.41,15.9,22.3,,00.0,0654.7,30.9
2021-02-12T09:19:00Z,00000200,01000000,-000.48,0000.26,0000.21,-000.20,0000.09,0000.30,0000.29,-000.27,-000.00,15.8,22.2,,00.0,0654.7,30.9
2021-02-12T09:20:00Z,00000200,01000000,0000.83,0000.31,-000.23,-000.14,0000.15,0000.04,0000.24,0000.19,0000.31,15.8,22.2,,00.0,0654.7,30.9
2021-02-12T09:21:00Z,00000200,01000000,0000.34,0000.11,0000.08,0000.31,0000.10,0000.18,0000.06,0000.49,-000.01,15.8,22.2,,00.0,0654.6,30.9
2021-02-12T09:22:00Z,00000200,01000000,0000.46,0000.18,0000.08,0000.27,0000.04,0000.09,0000.52,0000.30,0000.61,15.8,22.2,,00.0,0654.6,30.9
2021-02-12T09:23:00Z,00000200,01000000,0000.75,0000.41,-000.16,0000.34,-000.18,-000.12,0000.39,0000.13,-000.18,15.9,22.2,,00.0,0654.6,30.9
2021-02-12T09:24:00Z,00000200,01000000,0000.11,-000.12,-000.03,-000.16,0000.29,-000.23,0000.06,0000.33,0000.27,16.0,22.2,,00.0,0654.5,30.9
2021-02-12T09:25:00Z,00000200,01000000,0000.70,0000.44,0000.33,0000.11,-000.17,0000.36,0000.65,0000.10,0000.20,16.0,22.3,,00.0,0654.5,30.9
2021-02-12T09:26:00Z,00000200,01000000,0000.29,0000.65,-000.02,0000.02,0000.26,-000.09,-000.39,0000.21,0000.04,16.1,22.3,,00.0,0654.6,30.9
2021-02-12T09:27:00Z,00000200,01000000,0000.13,0000.39,0000.10,-000.10,-000.12,-000.26,0000.43,0000.49,0000.14,16.2,22.4,,00.0,0654.5,30.9
2021-02-12T09:28:00Z,00000200,01000000,-000.05,0000.33,0000.07,0000.11,0000.12,-000.46,0000.38,0000.22,0000.64,16.3,22.4,,00.0,0654.5,30.9
2021-02-12T09:29:00Z,00000200,01000000,0000.86,0000.39,0000.01,-000.29,0000.29,0000.19,0000.08,-000.06,-000.02,16.3,22.4,,00.0,0654.6,31.0
2021-02-12T09:30:00Z,00000200,01000000,-000.12,0000.33,-000.22,-000.24,-000.15,-000.09,0000.31,0000.38,0000.16,16.4,22.4,,00.0,0654.5,31.0
2021-02-12T09:31:00Z,00000200,01000000,0000.50,0000.26,-000.04,0000.07,0000.04,0000.06,0000.37,0000.03,-000.21,16.5,22.5,,00.0,0654.6,31.0
2021-02-12T09:32:00Z,00000200,01000000,0000.38,0000.67,0000.17,0000.58,0000.26,0000.30,-000.21,0000.24,0000.16,16.5,22.5,,00.0,0654.6,31.0
2021-02-12T09:33:00Z,00000200,01000000,0000.22,0000.50,0000.27,-000.17,0000.05,0000.22,-000.07,-000.16,0000.27,16.6,22.5,,00.0,0654.6,31.0
2021-02-12T09:34:00Z,00000200,01000000,-000.12,0000.35,-000.01,0000.33,0000.36,-000.09,0000.04,-000.02,-000.12,16.6,22.5,,00.0,0654.6,31.0
2021-02-12T09:35:00Z,00000200,01000000,-000.15,0000.39,0000.25,0000.26,-000.04,-000.13,0000.01,-000.14,-000.24,16.5,22.5,,00.0,0654.6,31.0
2021-02-12T09:36:00Z,00000200,01000000,-001.00,0000.32,-000.17,-000.75,0000.15,-000.25,-000.02,0000.07,0000.26,16.5,22.5,,00.0,0654.6,31.0
2021-02-12T09:37:00Z,00000200,01000000,0000.80,0000.29,-000.15,-000.01,0000.39,0000.11,0000.11,0000.21,-000.26,16.4,22.5,,00.0,0654.5,31.0
2021-02-12T09:38:00Z,00000200,01000000,-000.19,0000.37,0000.06,-000.18,-000.00,0000.09,-000.04,-000.08,0000.18,16.4,22.4,,00.0,0654.5,30.9
2021-02-12T09:39:00Z,00000200,01000000,0000.96,0000.49,-000.23,0000.10,0000.34,-000.17,0000.31,0000.40,0000.08,16.3,22.4,,00.0,0654.5,30.9
2021-02-12T09:40:00Z,00000200,01000000,-000.22,0000.03,0000.01,0000.61,0000.11,-000.10,-000.13,0000.01,-000.06,16.2,22.4,,00.0,0654.4,30.9
2021-02-12T09:41:00Z,00000200,01000000,0000.78,0000.03,-000.06,-000.16,-000.12,-000.02,0000.48,0000.12,0000.37,16.2,22.4,,00.0,0654.4,30.9
2021-02-12T09:42:00Z,00000200,01000000,-000.10,0000.29,0000.13,0000.04,0000.39,-000.06,-000.01,0000.39,0000.13,16.2,22.4,,00.0,0654.5,30.9
2021-02-12T09:43:00Z,00000200,01000000,0000.30,0000.68,-000.12,-000.00,0000.37,-000.31,0000.16,-000.37,-000.38,16.1,22.3,,00.0,0654.5,30.9
2021-02-12T09:44:00Z,00000200,01000000,0000.64,0000.32,-000.06,0000.43,-000.05,0000.30,-000.06,-000.01,0000.49,16.1,22.3,,00.0,0654.5,30.9
2021-02-12T09:45:00Z,00000200,01000000,0000.46,0000.20,-000.09,0000.02,0000.06,-000.06,-000.22,0000.25,-000.37,16.0,22.3,,00.0,0654.5,30.9
2021-02-12T09:46:00Z,00000200,01000000,-000.31,0000.31,-000.09,-000.20,0000.01,-000.35,0000.19,-000.43,0000.27,16.0,22.2,,00.0,0654.5,30.9
2021-02-12T09:47:00Z,00000200,01000000,-000.01,0000.29,-000.24,-000.36,0000.10,-000.04,-000.09,0000.25,-000.17,15.9,22.2,,00.0,0654.5,30.9
2021-02-12T09:48:00Z,00000200,01000000,0000.13,0000.37,-000.13,0000.09,0000.18,0000.09,0000.28,0000.19,0000.19,15.9,22.2,,00.0,0654.5,30.9
2021-02-12T09:49:00Z,00000200,01000000,0000.88,0000.10,-000.04,-000.26,0000.08,0000.09,-000.08,0000.03,0000.13,15.9,22.2,,00.0,0654.5,30.9
2021-02-12T09:50:00Z,00000200,01000000,0000.71,0000.31,0000.20,0000.33,0000.09,0000.15,0000.20,0000.01,-000.09,15.8,22.1,,00.0,0654.5,30.9
2021-02-12T09:51:00Z,00000200,01000000,0000.22,0000.32,-000.10,-000.34,-000.18,-000.09,0000.18,0000.35,0000.32,15.8,22.1,,00.0,0654.5,30.9
2021-02-12T09:52:00Z,00000200,01000000,0000.44,0000.35,-000.32,0000.56,0000.22,-000.07,0000.32,-000.13,0000.22,15.9,22.1,,00.0,0654.4,30.9
2021-02-12T09:53:00Z,00000200,01000000,0000.54,0000.34,0000.17,0000.38,-000.07,-000.17,0000.26,0000.44,0000.27,15.9,22.1,,00.0,0654.4,30.9
2021-02-12T09:54:00Z,00000200,01000000,-000.04,0000.46,-000.04,-000.16,0000.27,0000.08,0000.35,0000.46,0000.06,16.0,22.2,,00.0,0654.4,30.9
2021-02-12T09:55:00Z,00000200,01000000,0000.33,0000.20,0000.08,-000.18,0000.29,-000.02,0000.04,-000.08,0000.18,16.1,22.2,,00.0,0654.4,30.9
2021-02-12T09:56:00Z,00000200,01000000,-000.28,0000.42,-000.08,-000.25,0000.19,0000.00,0000.03,-000.10,-000.12,16.1,22.2,,00.0,0654.4,30.9
2021-02-12T09:57:00Z,00000200,41000000,,,,,,,-000.68,-000.24,-000.71,16.1,22.2,,00.0,0654.4,30.9
2021-02-12T09:58:00Z,00000200,61000000,,,,,,,-000.12,0000.02,0000.19,15.7,22.3,,00.0,0653.4,30.9
2021-02-12T09:59:00Z,00000200,21000000,,,,,,,0000.56,0000.11,0000.11,15.7,22.4,,00.0,0653.4,30.9
